sat.trackr.live / text

‹ back to catalog

SDA_1675

NORAD 65985 · 2025-230M

PAYLOAD ACTIVE UNKNOWN

§ Identity

Operator
Country
US
Launch date
2025-10-15
Launch site
AFWTR
Launch vehicle
Mass (kg)
RCS (m²)

External: N2YO · Heavens-Above · Gunter

§ Orbital elements

Epoch: 2026-09-20T14:27:51.369696Z

Period
103.99 min
Inclination
81.2963°
Eccentricity
0.0001975
Mean motion
13.84769926 rev/d
Perigee alt
945.6 km
Apogee alt
948.5 km
Semi-major
7,325.2 km
B*
9.7456e-5
RAAN
123.2171°
Arg perigee
270.1681°
Mean anomaly
89.9249°
Rev number
4,701

§ Raw data

SDA_16751 65985U 25230M   26263.60267789  .00000122  00000+0  97456-4 0  99982 65985  81.2963 123.2171 0001975 270.1681  89.9249 13.84769926 47016

JSON: /api/v1/satellites/65985 · /tle

For live sub-satellite position, see the globe view (requires WebGL).

§ Visibility from observer

Set your observer location to see the next 7 days of passes ≥ 10°. The values pass through the URL so the page stays shareable.

No JS? Fill the form by hand. The geolocation button needs JavaScript.